Time,TemperatureF,DewpointF,PressureIn,WindDirection,WindDirectionDegrees,WindSpeedMPH,WindSpeedGustMPH,Humidity,HourlyPrecipIn,Conditions,Clouds,dailyrainin,SoftwareType,DateUTC
2013-08-25 00:03:00,-999.0,-99.9,30.23,North,5,0.0,0.0,-999,-99.99,,,-99.99,,2013-08-25 04:03:00,
2013-08-25 00:14:00,63.0,62.0,30.23,North,5,0.0,0.0,95,0.00,,,0.01,,2013-08-25 04:14:00,
2013-08-25 00:25:00,63.0,62.0,30.23,North,5,0.0,0.0,95,0.00,,,0.01,,2013-08-25 04:25:00,
2013-08-25 00:43:00,63.0,61.0,30.24,North,5,0.0,0.0,94,0.00,,,0.01,,2013-08-25 04:43:00,
2013-08-25 00:54:00,62.0,61.0,30.24,North,5,0.0,0.0,95,0.00,,,0.01,,2013-08-25 04:54:00,
2013-08-25 01:12:00,62.0,61.0,30.24,North,5,0.0,0.0,95,0.00,,,0.01,,2013-08-25 05:12:00,
2013-08-25 01:23:00,62.0,61.0,30.24,North,5,0.0,1.0,95,0.00,,,0.01,,2013-08-25 05:23:00,
2013-08-25 01:42:00,62.0,60.0,30.24,North,5,0.0,0.0,94,0.00,,,0.01,,2013-08-25 05:42:00,
2013-08-25 01:52:00,61.0,59.0,30.24,North,5,0.0,0.0,94,0.00,,,0.01,,2013-08-25 05:52:00,
2013-08-25 02:12:00,61.0,59.0,30.24,North,5,0.0,0.0,94,0.00,,,0.01,,2013-08-25 06:12:00,
2013-08-25 02:22:00,61.0,59.0,30.24,North,5,0.0,0.0,94,0.00,,,0.01,,2013-08-25 06:22:00,
2013-08-25 02:43:00,61.0,59.0,30.24,North,5,0.0,0.0,94,0.00,,,0.01,,2013-08-25 06:43:00,
2013-08-25 02:52:00,60.0,58.0,30.24,North,5,0.0,0.0,94,0.00,,,0.01,,2013-08-25 06:52:00,
2013-08-25 03:12:00,60.0,59.0,30.24,North,5,0.0,0.0,95,0.00,,,0.01,,2013-08-25 07:12:00,
2013-08-25 03:22:00,60.0,59.0,30.24,North,5,0.0,0.0,95,0.00,,,0.01,,2013-08-25 07:22:00,
2013-08-25 03:42:00,59.0,58.0,30.24,North,5,0.0,0.0,95,0.00,,,0.01,,2013-08-25 07:42:00,
2013-08-25 03:52:00,59.0,58.0,30.24,North,5,0.0,0.0,95,0.00,,,0.01,,2013-08-25 07:52:00,
2013-08-25 04:12:00,59.0,58.0,30.24,North,5,0.0,0.0,96,0.00,,,0.01,,2013-08-25 08:12:00,
2013-08-25 04:21:00,59.0,58.0,30.24,North,5,0.0,0.0,96,0.00,,,0.01,,2013-08-25 08:21:00,
2013-08-25 04:42:00,59.0,58.0,30.24,North,5,0.0,0.0,96,0.00,,,0.00,,2013-08-25 08:42:00,
2013-08-25 04:52:00,59.0,58.0,30.24,North,5,0.0,0.0,96,0.00,,,0.00,,2013-08-25 08:52:00,
2013-08-25 05:11:00,59.0,58.0,30.24,North,5,0.0,1.0,96,0.00,,,0.00,,2013-08-25 09:11:00,
2013-08-25 05:22:00,58.0,57.0,30.24,North,5,0.0,0.0,96,0.00,,,0.00,,2013-08-25 09:22:00,
2013-08-25 05:44:00,58.0,57.0,30.25,North,5,0.0,0.0,96,0.00,,,0.00,,2013-08-25 09:44:00,
2013-08-25 05:55:00,58.0,57.0,30.25,North,5,0.0,2.0,96,0.00,,,0.00,,2013-08-25 09:55:00,
2013-08-25 06:12:00,58.0,57.0,30.25,North,5,0.0,0.0,95,0.00,,,0.00,,2013-08-25 10:12:00,
2013-08-25 06:23:00,58.0,57.0,30.26,North,5,0.0,0.0,96,0.00,,,0.00,,2013-08-25 10:23:00,
2013-08-25 06:42:00,58.0,57.0,30.26,North,5,0.0,0.0,96,0.00,,,0.00,,2013-08-25 10:42:00,
2013-08-25 06:53:00,58.0,57.0,30.27,North,5,0.0,0.0,96,0.00,,,0.00,,2013-08-25 10:53:00,
2013-08-25 07:12:00,58.0,57.0,30.27,North,5,0.0,0.0,96,0.00,,,0.00,,2013-08-25 11:12:00,
2013-08-25 07:22:00,57.0,56.0,30.28,North,5,0.0,0.0,96,0.00,,,0.00,,2013-08-25 11:22:00,
2013-08-25 07:42:00,58.0,57.0,30.29,North,5,0.0,1.0,97,0.00,,,0.00,,2013-08-25 11:42:00,
2013-08-25 07:52:00,58.0,57.0,30.29,North,5,0.0,0.0,97,0.00,,,0.00,,2013-08-25 11:52:00,
2013-08-25 08:12:00,58.0,57.0,30.30,North,5,0.0,0.0,97,0.00,,,0.00,,2013-08-25 12:12:00,
2013-08-25 08:22:00,58.0,57.0,30.30,North,5,0.0,0.0,97,0.00,,,0.00,,2013-08-25 12:22:00,
2013-08-25 08:43:00,59.0,58.0,30.30,North,5,0.0,0.0,98,0.00,,,0.00,,2013-08-25 12:43:00,
2013-08-25 08:52:00,59.0,58.0,30.31,North,5,0.0,0.0,98,0.00,,,0.00,,2013-08-25 12:52:00,
2013-08-25 09:12:00,61.0,60.0,30.32,North,5,0.0,0.0,98,0.00,,,0.00,,2013-08-25 13:12:00,
2013-08-25 09:22:00,62.0,61.0,30.32,North,5,0.0,1.0,98,0.00,,,0.00,,2013-08-25 13:22:00,
2013-08-25 09:42:00,64.0,64.0,30.32,North,5,0.0,1.0,99,0.00,,,0.00,,2013-08-25 13:42:00,
2013-08-25 09:52:00,65.0,65.0,30.32,North,5,0.0,3.0,99,0.00,,,0.00,,2013-08-25 13:52:00,
2013-08-25 10:11:00,67.0,65.0,30.33,North,5,0.0,5.0,93,0.00,,,0.00,,2013-08-25 14:11:00,
2013-08-25 10:26:00,70.0,64.0,30.33,North,5,1.0,4.0,82,0.00,,,0.00,,2013-08-25 14:26:00,
2013-08-25 10:52:00,73.0,65.0,30.33,North,5,0.0,4.0,75,0.00,,,0.00,,2013-08-25 14:52:00,
2013-08-25 11:11:00,75.0,65.0,30.33,North,5,1.0,4.0,70,0.00,,,0.00,,2013-08-25 15:11:00,
2013-08-25 11:23:00,76.0,64.0,30.32,North,5,0.0,3.0,67,0.00,,,0.00,,2013-08-25 15:23:00,
2013-08-25 11:44:00,77.0,65.0,30.32,North,5,1.0,4.0,66,0.00,,,0.00,,2013-08-25 15:44:00,
2013-08-25 11:55:00,77.0,63.0,30.31,North,5,0.0,4.0,63,0.00,,,0.00,,2013-08-25 15:55:00,
2013-08-25 12:14:00,78.0,64.0,30.31,North,5,0.0,3.0,62,0.00,,,0.00,,2013-08-25 16:14:00,
2013-08-25 12:24:00,79.0,61.0,30.31,North,5,0.0,6.0,55,0.00,,,0.00,,2013-08-25 16:24:00,
2013-08-25 12:44:00,79.0,60.0,30.30,North,5,1.0,5.0,53,0.00,,,0.00,,2013-08-25 16:44:00,
2013-08-25 12:54:00,79.0,59.0,30.30,North,5,1.0,5.0,51,0.00,,,0.00,,2013-08-25 16:54:00,
2013-08-25 13:12:00,78.0,62.0,30.30,North,5,0.0,4.0,57,0.00,,,0.00,,2013-08-25 17:12:00,
2013-08-25 13:23:00,79.0,61.0,30.29,North,5,0.0,5.0,55,0.00,,,0.00,,2013-08-25 17:23:00,
2013-08-25 13:43:00,80.0,62.0,30.29,North,5,1.0,4.0,55,0.00,,,0.00,,2013-08-25 17:43:00,
2013-08-25 13:53:00,80.0,60.0,30.28,North,5,0.0,4.0,51,0.00,,,0.00,,2013-08-25 17:53:00,
2013-08-25 14:12:00,81.0,62.0,30.27,North,5,1.0,3.0,52,0.00,,,0.00,,2013-08-25 18:12:00,
2013-08-25 14:22:00,81.0,60.0,30.27,North,5,2.0,10.0,49,0.00,,,0.00,,2013-08-25 18:22:00,
2013-08-25 14:43:00,82.0,60.0,30.26,North,5,0.0,4.0,48,0.00,,,0.00,,2013-08-25 18:43:00,
2013-08-25 14:52:00,82.0,61.0,30.26,North,5,1.0,7.0,50,0.00,,,0.00,,2013-08-25 18:52:00,
2013-08-25 15:12:00,82.0,61.0,30.25,North,5,2.0,6.0,49,0.00,,,0.00,,2013-08-25 19:12:00,
2013-08-25 15:22:00,82.0,61.0,30.25,North,5,0.0,2.0,49,0.00,,,0.00,,2013-08-25 19:22:00,
2013-08-25 15:42:00,82.0,63.0,30.24,North,5,1.0,6.0,52,0.00,,,0.00,,2013-08-25 19:42:00,
2013-08-25 15:53:00,81.0,64.0,30.24,North,5,1.0,4.0,57,0.00,,,0.00,,2013-08-25 19:53:00,
2013-08-25 16:12:00,81.0,61.0,30.23,North,5,0.0,2.0,51,0.00,,,0.00,,2013-08-25 20:12:00,
2013-08-25 16:23:00,82.0,64.0,30.23,North,5,1.0,7.0,54,0.00,,,0.00,,2013-08-25 20:23:00,
2013-08-25 16:43:00,82.0,61.0,30.23,North,5,2.0,5.0,50,0.00,,,0.00,,2013-08-25 20:43:00,
2013-08-25 16:53:00,82.0,60.0,30.22,North,5,0.0,3.0,48,0.00,,,0.00,,2013-08-25 20:53:00,
2013-08-25 17:12:00,82.0,66.0,30.23,North,5,0.0,3.0,58,0.00,,,0.00,,2013-08-25 21:12:00,
2013-08-25 17:22:00,80.0,65.0,30.22,North,5,0.0,3.0,61,0.00,,,0.00,,2013-08-25 21:22:00,
2013-08-25 17:43:00,80.0,65.0,30.22,North,5,0.0,4.0,61,0.00,,,0.00,,2013-08-25 21:43:00,
2013-08-25 17:55:00,80.0,65.0,30.22,North,5,0.0,1.0,61,0.00,,,0.00,,2013-08-25 21:55:00,
2013-08-25 18:14:00,79.0,64.0,30.22,North,5,1.0,4.0,61,0.00,,,0.00,,2013-08-25 22:14:00,
2013-08-25 18:24:00,78.0,66.0,30.22,North,5,0.0,2.0,66,0.00,,,0.00,,2013-08-25 22:24:00,
2013-08-25 18:43:00,77.0,65.0,30.22,North,5,0.0,1.0,66,0.00,,,0.00,,2013-08-25 22:43:00,
2013-08-25 18:53:00,76.0,66.0,30.22,North,5,0.0,1.0,72,0.00,,,0.00,,2013-08-25 22:53:00,
2013-08-25 19:12:00,74.0,66.0,30.23,North,5,0.0,0.0,76,0.00,,,0.00,,2013-08-25 23:12:00,
2013-08-25 19:23:00,73.0,66.0,30.22,North,5,0.0,0.0,78,0.00,,,0.00,,2013-08-25 23:23:00,
2013-08-25 19:43:00,71.0,65.0,30.22,North,5,0.0,1.0,82,0.00,,,0.00,,2013-08-25 23:43:00,
2013-08-25 20:22:00,68.0,64.0,30.23,North,5,0.0,0.0,88,0.00,,,0.00,,2013-08-26 00:22:00,
2013-08-25 20:42:00,67.0,63.0,30.23,North,5,0.0,1.0,88,0.00,,,0.00,,2013-08-26 00:42:00,
2013-08-25 21:11:00,65.0,62.0,30.23,North,5,0.0,1.0,91,0.00,,,0.00,,2013-08-26 01:11:00,
2013-08-25 21:22:00,65.0,63.0,30.24,North,5,0.0,1.0,92,0.00,,,0.00,,2013-08-26 01:22:00,
2013-08-25 21:42:00,65.0,63.0,30.24,North,5,0.0,0.0,93,0.00,,,0.00,,2013-08-26 01:42:00,
2013-08-25 21:52:00,65.0,63.0,30.25,North,5,0.0,0.0,94,0.00,,,0.00,,2013-08-26 01:52:00,
2013-08-25 22:02:00,65.0,63.0,30.25,North,5,0.0,0.0,94,0.00,,,0.00,,2013-08-26 02:02:00,
2013-08-25 22:11:00,65.0,63.0,30.25,North,5,0.0,0.0,94,0.00,,,0.00,,2013-08-26 02:11:00,
2013-08-25 22:22:00,64.0,62.0,30.26,North,5,0.0,0.0,94,0.00,,,0.00,,2013-08-26 02:22:00,
2013-08-25 22:42:00,64.0,62.0,30.26,North,5,0.0,0.0,94,0.00,,,0.00,,2013-08-26 02:42:00,
2013-08-25 22:52:00,64.0,62.0,30.26,North,5,0.0,0.0,94,0.00,,,0.00,,2013-08-26 02:52:00,
2013-08-25 23:11:00,64.0,62.0,30.26,North,5,0.0,0.0,94,0.00,,,0.00,,2013-08-26 03:11:00,
2013-08-25 23:22:00,64.0,62.0,30.27,North,5,0.0,0.0,94,0.00,,,0.00,,2013-08-26 03:22:00,
2013-08-25 23:44:00,64.0,62.0,30.27,North,5,0.0,0.0,94,0.00,,,0.00,,2013-08-26 03:44:00,
2013-08-25 23:56:00,64.0,62.0,30.27,North,5,0.0,0.0,94,0.00,,,0.00,,2013-08-26 03:56:00,